Regional Weather Roundup
Issued by NWS Glasgow, MT

Home | Current Version | Previous Version | Text Only | Print | Product List | Glossary On
Versions: 1 2 3 4 5 6 7 8 9 10 11 12 13 14 15 16 17 18 19 20 21 22 23 24 25 26 27 28
745
ASUS45 KGGW 221915
RWRGGW
HOURLY WEATHER ROUNDUP FOR NORTHEAST MONTANA
NATIONAL WEATHER SERVICE GLASGOW MONTANA
100 PM MDT FRI MAY 22 2015

NOTE: "FAIR" INDICATES FEW OR NO CLOUDS BELOW 12,000 FEET WITH NO
SIGNIFICANT WEATHER AND/OR OBSTRUCTIONS TO VISISBILITY.

NORTHEAST MONTANA


CITY           SKY/WX    TMP DP  RH WIND       PRES   REMARKS
GLASGOW        SUNNY     73  38  27 SE18G31   30.00F
WOLF POINT     SUNNY     75  35  23 SE17G25   30.02F
JORDAN           N/A     70  43  37 SE21G33   29.97F
WINNETT          N/A     67  44  43 E9          N/A
SIDNEY         SUNNY     73  32  21 SE20G26   30.06F
GLENDIVE       CLOUDY    70  41  35 SE22G29   30.04F
MALTA            N/A     70  42  36 SE12G21     N/A
OPHEIM           N/A     66  27  22 E16       29.87F

FORT PECK REPORTS


CITY           SKY/WX    TMP DP  RH WIND       PRES   REMARKS
FORT PECK        N/A     69  43  38 E21         N/A
THE PINES        N/A     70  39  32 SE12        N/A

SOUTHEAST MONTANA


CITY           SKY/WX    TMP DP  RH WIND       PRES   REMARKS
BILLINGS       PTSUNNY   62  46  55 E7        29.94F
MILES CITY     CLOUDY    67  43  41 SE18G26   29.99S
BAKER          PTSUNNY   69  40  34 SE25G33   30.06F
LIVINGSTON     MOSUNNY   64  44  48 E10       29.93F

CENTRAL MONTANA


CITY           SKY/WX    TMP DP  RH WIND       PRES   REMARKS
HAVRE          MOSUNNY   70  43  37 SE16      29.96F
LEWISTOWN      CLOUDY    61  44  53 E17       29.96F
GREAT FALLS    SUNNY     66  38  35 CALM      29.94F
CUT BANK       MOSUNNY   66  36  32 E14       29.98S
HELENA         MOSUNNY   68  42  38 NE7       29.91F
BUTTE          PTSUNNY   55  39  54 NE7       29.96S
BOZEMAN        MOSUNNY   63  43  48 CALM      29.92F

WESTERN MONTANA


CITY           SKY/WX    TMP DP  RH WIND       PRES   REMARKS
MISSOULA       SUNNY     70  40  33 CALM      29.89F
KALISPELL      NOT AVBL

NORTH DAKOTA


CITY           SKY/WX    TMP DP  RH WIND       PRES   REMARKS
WILLISTON      SUNNY     75  31  19 SE16G28   30.08F
DICKINSON      SUNNY     70  33  25 SE22G36   30.08F
MINOT          SUNNY     75  33  21 S12G21    30.11F
BISMARCK       SUNNY     74  36  25 S10G22    30.13F

SOUTHERN SASKATCHEWAN


CITY           SKY/WX    TMP DP  RH WIND       PRES   REMARKS
REGINA         MOSUNNY   75  30  19 S6        30.07F
MOOSE JAW      PTSUNNY   75  30  19 S2        30.07F
ESTEVAN        MOSUNNY   75  30  19 SE15G21   30.09F
SWIFT CURRENT  SUNNY     72  28  20 SE24G31   30.04F




USA.gov is the U.S. government's official web portal to all federal, state and local government web resources and services.